{"data":{"norad_id":62914,"epoch":"2026-09-21T02:36:54.059328Z","epoch_age_seconds":115655,"freshness":"FRESH","line1":"1 62914U 25027H   26264.10895902  .00219238  00000+0  16729-2 0  9993","line2":"2 62914  42.9990 249.9922 0001915 186.1607 173.9237 15.70760677 93920","mean_motion":15.70760677,"eccentricity":0.0001915,"inclination_deg":42.999,"raan_deg":249.9922,"arg_perigee_deg":186.1607,"mean_anomaly_deg":173.9237,"bstar":0.0016729,"rev_number":9392,"period_min":91.675327825895,"perigee_km":355.43206563065,"apogee_km":358.01151654764,"semimajor_km":6734.8587910891,"source":"CELESTRAK","updated_at":"2026-09-22T09:00:49.707889Z"}}